[Iaude] MPEC G13: 2024 FC4 [a=2.05,e=0.56,i=5.3,H=24.9]

mpec at cfa.harvard.edu mpec at cfa.harvard.edu
Tue Apr 2 21:52:52 EDT 2024


M.P.E.C. 2024-G13                                 Issued 2024 April 3, 01:51 UT

     The Minor Planet Electronic Circulars contain information on unusual
         minor planets, routine data on comets and natural satellites,
         and occasional editorial announcements.  They are published
    on behalf of Division F of the International Astronomical Union by the
          Minor Planet Center, Smithsonian Astrophysical Observatory,
                          Cambridge, MA 02138, U.S.A.
			  
             Prepared using the Tamkin Foundation Computer Network

                              MPC at CFA.HARVARD.EDU
            URL https://www.minorplanetcenter.net/    ISSN 1523-6714

                                    2024 FC4                                    


Observations:
     K24F04C* C2024 03 31.60030415 04 13.222+11 00 49.28         20.56wXEG013F51
     K24F04C  C2024 03 31.61103115 04 10.416+11 00 23.14         20.53wXEG013F51
     K24F04C  C2024 03 31.62185115 04 07.562+10 59 56.36         20.69wXEG013F51
     K24F04C KB2024 03 31.98091715 03 00.84 +10 45 12.7                XEG013958
     K24F04C KB2024 03 31.98875815 02 58.98 +10 44 55.9          19.6 GXEG013958
     K24F04C KB2024 03 31.99654615 02 57.18 +10 44 40.0          19.9 GXEG013958
     K24F04C KB2024 04 01.04605015 02 45.40 +10 42 50.5          20.6 GXEG013I93
     K24F04C KB2024 04 01.04960415 02 44.55 +10 42 42.8          20.3 GXEG013I93
     K24F04C KB2024 04 01.05291415 02 43.75 +10 42 35.9          20.4 GXEG013I93
     K24F04C KB2024 04 01.20908 15 02 07.98 +10 37 23.5          21.4 VqEG013Y66
     K24F04C KB2024 04 01.21055 15 02 07.60 +10 37 20.5          21.5 VqEG013Y66
     K24F04C KB2024 04 01.21119 15 02 07.47 +10 37 18.2          21.5 VqEG013Y66
     K24F04C KB2024 04 01.21182 15 02 07.28 +10 37 17.3          21.0 VqEG013Y66
     K24F04C  C2024 04 01.57090915 00 59.795+10 24 56.64         20.86wXEG013F51
     K24F04C  C2024 04 01.58563015 00 56.376+10 24 25.98         20.79wXEG013F51
     K24F04C  C2024 04 01.59320415 00 54.642+10 24 10.21         20.70wXEG013F51
     K24F04C KC2024 04 03.00975814 57 00.12 +09 39 54.8          21.1 GVEG013L01
     K24F04C KC2024 04 03.01228214 56 59.66 +09 39 50.8          21.1 GVEG013L01
     K24F04C KC2024 04 03.01480914 56 59.19 +09 39 47.2          20.6 GVEG013L01

Observer details:
958 Observatoire de Dax.  Observer P. Dupouy.  0.50-m f/4.5 Reflector + CMO.
F51 Pan-STARRS 1, Haleakala.  Observers J. Herman, T. Lowe, P. Minguez, A.
    Schultz, I. Smith.  Measurers K. Chambers, T. de Boer, J. Fairlamb, H.
    Gao, M. Huber, C.-C. Lin, E. Magnier, Y. Ramanjooloo, R. Wainscoat, R.
    Weryk.  1.8-m Ritchey-Chretien + CCD.
I93 St Pardon de Conques.  Observer F. Losse.  0.40-m f/3.7 reflector + CCD.
L01 Visnjan Observatory, Tican.  Observers K. Korlevic, L. Poropat.  Measurer
    K. Korlevic.  1.0-m f/2.9 reflector + CCD.
Y66 Two-Meter Twin Telescope, TTT2, Teide.  Observer M. R. Alarcon.
    Measurer M. Serra-Ricart.  0.80-m f/4.38 reflector + CMO.

Orbital elements:
2024 FC4                                                 Earth MOID = 0.0121 AU
Epoch 2024 Mar. 31.0 TT = JDT 2460400.5                 Veres                   
M  13.54315              (2000.0)            P               Q                  
n   0.33469824     Peri.  325.22333     -0.76153868     -0.64805530             
a   2.0544730      Node   174.35535     +0.61369136     -0.72553938             
e   0.5614322      Incl.    5.32000     +0.20842686     -0.23155332             
P   2.94           H   24.98          G   0.15           U   8                  
Residuals in seconds of arc
240331 F51  0.1-  0.1-    240401 I93  0.1+  0.0     240401 F51  0.0   0.1+
240331 F51  0.3+  0.2+    240401 I93  0.0   0.3+    240401 F51  0.1+  0.1+
240331 F51  0.1-  0.0     240401 Y66  0.1-  0.0     240403 L01  0.0   0.3-
240331 958  0.3-  1.4-    240401 Y66  0.5-  0.3+    240403 L01  0.0   0.2-
240331 958  0.8-  1.1-    240401 Y66  0.1-  0.6-    240403 L01  0.0   0.4+
240331 958  0.5-  0.1-    240401 Y66  0.7-  0.1-
240401 I93  0.2+  0.1-    240401 F51  0.0   0.0

Ephemeris:
2024 FC4                 a,e,i = 2.05, 0.56, 5                   q = 0.9010
Date    TT    R. A. (2000) Decl.     Delta      r    Elong.  Phase     V
2024 03 04    02 05 10.6 -00 16 46   0.1104  0.9195    46.7   128.2    25.6
...
2024 03 19    00 10 54.5 +22 30 32   0.01866 0.9785    23.4   156.1    26.1
...
2024 03 27    15 32 05.7 +16 07 10   0.03902 1.0233   129.9    48.4    19.8
...
2024 04 02    14 59 44.3 +10 11 08   0.07588 1.0614   143.4    34.2    20.9
2024 04 03    14 57 00.4 +09 41 15   0.08218 1.0681   144.8    32.6    21.1
2024 04 04    14 54 35.6 +09 15 08   0.08852 1.0748   146.2    31.2    21.2
...
2024 04 10    14 44 05.6 +07 24 34   0.1275  1.1169   153.0    24.0    21.9
...
2024 04 18    14 35 13.1 +05 48 36   0.1825  1.1764   159.1    17.7    22.6
...
2024 05 03    14 25 40.8 +03 21 49   0.2996  1.2945   160.6    15.0    23.8

M. P. C. Staff               (C) Copyright 2024 MPC           M.P.E.C. 2024-G13





More information about the Iaude mailing list